Regional Weather Roundup
Issued by NWS Wakefield, VA

Home | Current Version | Previous Version | Graphics & Text | Print | Product List | Glossary On
Versions: 1 2 3 4 5 6 7 8 9 10 11 12 13 14 15 16 17 18 19 20 21 22 23 24 25 26 27 28
000
ASUS41 KAKQ 222116
RWRAKQ

REGIONAL WEATHER ROUNDUP
NATIONAL WEATHER SERVICE WAKEFIELD VA
500 PM EDT TUE AUG 22 2017

Note: "fair" indicates few or no clouds below 12,000 feet with no
significant weather and/or obstructions to visibility. * = Denotes
station may not report precipitation (e.g., rain,snow,etc.),
thunder or fog.

VAZ042-051-052>054-056-222200-
NORTHERN VIRGINIA

CITY           SKY/WX    TMP DP  RH WIND       PRES   REMARKS
WASH NATIONAL  MOSUNNY   92  72  51 S18G25    29.85F HX  99
DULLES         MOSUNNY   90  73  57 S14G21    29.85F HX  98
FORT BELVOIR   SUNNY     91  70  50 S9        29.85F HX  96
QUANTICO       SUNNY     90  76  63 S14       29.86F HX 101
FREDERICKSBRG* SUNNY     93  72  50 S10       29.86F HX 100
STAFFORD*      SUNNY     90  67  46 S15G21    29.90F
WARRENTON      MOSUNNY   94  67  42 S10       29.85F HX  97
CULPEPER*      MOSUNNY   94  71  45 S10       29.86F HX 101
MANASSAS*      MOSUNNY   91  75  59 S15       29.86F HX 101
LEESBURG*      SUNNY     93  72  49 SW9       29.85F HX 100
WINCHESTER     SUNNY     90  72  55 S12       29.84F HX  96
FRONT ROYAL*   CLEAR     90  68  48 SW10G21   29.85F
LURAY*         CLEAR     91  64  40 S14G21    29.87F
$$

VAZ048-049-060>072-079>083-222200-
CENTRAL AND SOUTH CENTRAL VIRGINIA

CITY           SKY/WX    TMP DP  RH WIND       PRES   REMARKS
RICHMOND       MOSUNNY   89  72  56 S15       29.91F HX  96
CHESTERFIELD*  FAIR      89  72  56 SW10      29.92F HX  96
PETERSBURG*    SUNNY     89  69  52 S7        29.93F
HANOVER        SUNNY     91  69  48 S14G22    29.91F HX  96
TAPPAHANNOCK*  SUNNY     92  61  35 S12       29.91F
QUINTON*       FAIR     N/A N/A N/A S6        29.91F
CHARLOTTSVILLE MOSUNNY   93  65  39 SW9       29.88F HX  95
GORDONSVILLE*  MOCLDY    92  69  46 S10G16    29.87F HX  98
ORANGE*        PTSUNNY   91  66  43 S10G17    29.87F
LOUISA*        SUNNY     91  64  40 SW12G20   29.89F
BUMPASS*       FAIR      90  73  57 S10G18    29.89F HX  97
FARMVILLE*     MOSUNNY   94  55  25 S13G20    29.90F
CREWE*         FAIR      90  64  41 S9        29.93F
FORT PICKETT*  FAIR     N/A N/A N/A S12G22    29.94F
CHASE CITY*    FAIR      91  68  46 S7        29.94F HX  95
CLARKSVILLE*   FAIR      90  70  51 SW7       29.94F HX  95
SOUTH HILL*    SUNNY     88  73  60 S8        30.00F HX  96
LAWRENCEVILLE* FAIR      89  73  60 S8        29.94F HX  97
EMPORIA*       MOSUNNY   88  72  58 SE7       29.96F
$$

VAZ088>098-222200-
SOUTHEAST VIRGINIA

CITY           SKY/WX    TMP DP  RH WIND       PRES   REMARKS
NORFOLK        MOSUNNY   90  73  57 SW15      29.94F HX  98
VIRGINIA BEACH PTSUNNY   89  69  51 S16G23    29.94F
NORFOLK NAVAL  PTSUNNY   91  73  55 SW9       29.95F HX  99
WEST POINT*    MOSUNNY   91  70  50 S8G18     29.93F HX  96
SALUDA*        FAIR      89  74  60 SW10G20   29.92F HX  98
NEWPORT NEWS   SUNNY     89  73  59 S14       29.94F HX  97
LANGLEY AFB    PTSUNNY   90  73  58 SW12G20   29.94F HX  98
FORT EUSTIS    SUNNY     91  75  58 S9        29.91F HX 101
WILLIAMSBURG*  SUNNY     91  73  55 SW5       29.94F HX 100
HR EXEC AP*    FAIR      90  73  58 SW10G16   29.92F HX  98
FRANKLIN*      MOSUNNY   89  72  57 SW10      29.95F HX  95
US460-WAKEFLD  MOSUNNY   89  75  63 S8        29.94F HX  99
$$

VAZ020-022-025-037-045-222200-
WEST CENTRAL AND SOUTHWEST VIRGINIA

CITY           SKY/WX    TMP DP  RH WIND       PRES   REMARKS
STAUNTON*      PTSUNNY   90  67  47 S13       29.93F
WAYNESBORO*    PTCLDY    91  67  45 SW13G18   29.94F
HOT SPRINGS VA MOSUNNY   81  55  41 W14G20    30.12S
LYNCHBURG      PTSUNNY   88  67  49 S12       29.94F
DANVILLE       MOSUNNY   90  71  53 S8        29.94F HX  96
SOUTH BOSTON*  FAIR      92  65  41 S9        29.94F
MARTINSVILLE   MOSUNNY   89  70  53 SW6       29.99S
ROANOKE        MOSUNNY   95  62  33 SW9       29.96F HX  96
BLACKSBURG     PTSUNNY   86  66  51 W6        30.06S
DUBLIN*        MOSUNNY   88  63  42 W9G17     30.05R
MARION*        SUNNY     84  44  24 SW10G22   30.10F
HILLSVILLE*    MOSUNNY   82  64  55 S9G18     30.08R
RICHLANDS*     FAIR      83  55  38 SW12      30.07F
WISE*          MOSUNNY   82  61  47 SW13      30.08F
ABINGDON*      MOSUNNY   87  65  48 W14       30.05F
$$

MDZ021>025-VAZ099-100-222200-
SOUTHERN MARYLAND AND THE DELMARVA PENINSULA

CITY           SKY/WX    TMP DP  RH WIND       PRES   REMARKS
PATUXENT RIVER SUNNY     89  73  59 S10G21    29.89F HX  97
BAY BRIDGE APT SUNNY     90  73  58 S13G18    29.87F HX  98
LEONARDTOWN    SUNNY     90  70  51 S9        29.91F HX  95
DOVER          SUNNY     90  66  45 S20G25    29.86F
GEORGETOWN     SUNNY     89  70  53 S16G24    29.91F
EASTON         SUNNY     91  73  55 SW18G25   29.92F HX 100
CAMBRIDGE      SUNNY     88  77  70 S13G23    29.89F HX 100
SALISBURY      SUNNY     88  71  57 S14       29.92F
OCEAN CITY     SUNNY     82  77  84 S13G21    29.94F
WALLOPS ISLAND SUNNY     83  78  85 S16       29.95F
ACCOMACK*      SUNNY     85  77  76 S14       29.94F HX  96
$$

NCZ012>017-030>032-222200-
NORTH CENTRAL AND EASTERN NORTH CAROLINA

CITY           SKY/WX    TMP DP  RH WIND       PRES   REMARKS
ROANOKE RAPIDS FAIR      90  73  58 S9        29.96F HX  98
RALEIGH        MOSUNNY   92  71  50 S10       29.96F HX  98
ELIZABETH CITY PTSUNNY   90  77  65 S10       29.97F HX 103
AHOSKIE*         N/A     87  74  64 S7        29.97F HX  95
EDENTON*       SUNNY     89  77  65 S13       29.99F HX 101
CURRITUCK*     MOSUNNY   90  74  59 S3        29.98F HX  98
KILL DEVIL HLS SUNNY     86  74  67 S9        29.98F
MANTEO         SUNNY     86  76  72 S16G22    30.00F HX  96
CAPE HATTERAS  SUNNY     86  78  77 SW13      30.02F HX  98
TARBORO*       NOT AVBL
GOLDSBORO      NOT AVBL
WASHINGTON     MOSUNNY   86  74  66 S9        30.00F
GREENVILLE     SUNNY     90  77  66 S12       30.00F HX 102
NEW BERN       PTSUNNY   87  76  69 S12       30.01F HX  97
WILMINGTON     SUNNY     90  73  57 SW8       30.00F HX  98
$$

VAZ048-222200-
ELSEWHERE

CITY           SKY/WX    TMP DP  RH WIND       PRES   REMARKS
HARRISBURG PA  PTSUNNY   89  71  55 SW9G18    29.80F HX  95
BALTIMORE      MOSUNNY   91  72  53 SW13G20   29.84F HX  98
ANNAPOLIS      SUNNY     92  74  55 S14G21    29.85F HX 101
ANDREWS AFB    SUNNY     90  69  49 S18G24    29.86F
PHILADELPHIA   MOSUNNY   92  71  50 SW18G30   29.85F HX  98
HENDERSON NC   SUNNY     88  67  50 S8        29.96F
GREENSBORO     MOSUNNY   91  69  48 SW12      29.96F HX  96
ROCKY MOUNT    SUNNY     91  74  57 S7        29.96F HX 100
$$

VAZ100-222200-
MARINE

STATION/POSITION TIME  TEMP    WIND        PRES    WAVE   SWELL
                       AIR SEA DIR/SP/G            HT/PER HT/PER
                 (UTC) (F)     (DEG/KT/KT) (MB)    (FT/S) (FT/S)
BRANDYWINE LGT   2042   85     210/ 15/ 17 1012.6F
CAPE MAY NJ      2042   81 80  170/ 15/ 20 1012.0F
LEWES DE         2042   90 76  230/ 10/ 18 1012.3F
15NM E FENWICK I 2050   79 78  180/ 21/ 25 1013.6    4/ 5   2/ 9
OCEAN-CITY-INLET 2042   79 82  220/ 15/ 18 1014.3F
WACHAPREAGUE VA  2042   84 87  190/ 14/ 18 1014.2F
THOMAS POINT MD  2100   84 82  170/ 18/ 19   N/A
GOOSES REEF MD   2100   84 82  160/ 16/ 19 1012.3    2/ 3
COVE POINT MD    2042   83     170/ 17/ 19 1012.9F
SOLOMONS ISLAND  2042   88 83  200/ 13/ 17   N/A
BISHOPS HEAD MD  2042   85 85  180/ 19/ 22 1012.9F
PINEY POINT MD   2036          210/ 15/ 17   N/A
POTOMAC MD       2100   87 84  210/ 12/ 16 1011.7    2/ 3
CAMBRIDGE MD     2042   89 84              1013.3F
LEWISETTA VA     2042   89 85  220/ 14/ 16 1012.5F
RAPPAHANNOCK LGT 2036          170/ 12/ 14 1014.6F
STINGRAY PT      2100   87 83  230/ 12/ 16 1013.6    1/ 3
YORK RVR RNG VA  2042   87     210/ 14/ 16 1014.1F
YORKTOWN VA      2042   89 84  220/  7/ 14 1013.4F
JAMESTOWN VA     2100      87  210/ 12/ 16   N/A     1
DOMINION TERM VA 2036   87     210/  8/ 11 1014.3F
KIPTOPEKE VA     2036      84  180/ 14/ 16   N/A
CHES BAY BRIDGE  2036   87 83  230/ 10/ 13 1014.1F
CAPE HENRY VA    2036   89     170/ 10/ 15   N/A
WILLOUBY STN VA  2036   88     220/ 12/ 14 1014.1F
S CRANEY ISL VA  2036   89     200/  9/ 13 1014.1F
CAPE HENRY BUOY  2100      81                N/A     4/11   2/11
1ST LANDING BUOY 2100   87 82              1013.7    1/ 3
64NM E OF VA BCH 2050   80 81  190/ 12/ 14 1016.2    3/11   3/11
DUCK PIER NC     2036   86 78  170/ 16/ 18 1014.6F
44100 DUCK FRF   2005      82                N/A     3/11   2/11
44056 DUCK FRF   2030      83                N/A     3/11   2/11
OREGON INLET NC  2036   84 85  190/ 16/ 18 1016.2F
HATTERAS NC      2036   85 83  210/ 10/ 13 1016.9F
DIAMOND SHLS NC  2050   83 87  210/ 16/ 17 1016.8    4/10   3/10
CAPE LOOKOUT NC  2100   83     180/ 12/ 13 1016.1F
$$




USA.gov is the U.S. government's official web portal to all federal, state and local government web resources and services.